Время (UTC), дата Ветер
(°,м/с) 
Видим.   Явления Облачность Т
(°С)
Тd
(°С)
f(%) Тe
(°С)
Pmin
(гПа)
dP
(гПа)
Po
(мм)
O2
(г/м3)
Тmin Tmax R s Состояние
почвы
00 01.01.14 050 (СВ) 0100 м  туман{ливн. осадки}  ?/?  
-0.4 -0.8 97 -1  1029.6  0.7  730  295           
03 01.01.14 070 (В) 0100 м  туман  ?/?  
-0.5 -0.9 97 -2  1030.1  0.5  730  295  -0.5    0.8  равномерный
мокрый или
старый снег
100% 
06 01.01.14 090 (В) 0100 м  туман [диам. гололёда 1 мм]  ?/?  
-0.6 -1 97 -3  1031.4  1.2  731  295  -0.6         
09 01.01.14 100 (В) 4000 м  дымка{туман} [диам. гололёда 1 мм]  10/10 180 м 
[St]
-0.5 -0.9 97 -3  1030.9  -0.4  731  295           
12 01.01.14 100 (В) 10 км  {туман}  10/8 500 м средняя 
[Sc|Ac und]
-0.4 -0.9 96 -3  1030.8  -0.1  731  295           
15 01.01.14 100 (В) 20000 м    10/8 540 м средняя 
[Sc|Ac und]
-0.9 -1.7 94 -5  1031.5  0.5  731  296    -0.4       
18 01.01.14 100 (В) 7{10}  4000 м  дымка  10/10 180 м 
[St]
-1.1 -1.7 96 -5  1030.7  -0.8  731  296           
21 01.01.14 110 (В) 8-11{11}  4000 м  слаб. снег  10/10 120 м 
[St]
-1.4 -1.9 96 -6  1030.1  -0.6  730  296           
00 02.01.14 120 (ЮВ) 6{11}  10 км  слаб. снег{морось}  10/10 180 м 
[Frnb|Ns]
-1.5 -2.2 95 -5  1029.7  -0.6  730  296           
03 02.01.14 120 (ЮВ) 20000 м  в посл. час снег  10/10 200 м 
[Frnb|Ns]
-1.6 -2.5 94 -5  1028.7  -1  729  296  -1.7    0.3     
06 02.01.14 130 (ЮВ) 20000 м  {снег}  10/6 330 м кучево-дожд., средняя 
[Cb calv|Ac und]
-1.7 -3 91 -7  1029.5  0.7  730  296  -1.7         
09 02.01.14 140 (ЮВ) 9-13{13}  20000 м    10/6 270 м кучево-дожд., средняя 
[Cb calv|Ac und]
-1.5 -2.8 91 -6  1028.4  -1  729  296           
12 02.01.14 140 (ЮВ) 8-11{14}  20000 м    ясно 270 м 
-1.4 -2.9 89 -6  1027.6  -0.7  728  295           
15 02.01.14 130 (ЮВ) 20000 м    10/10 180 м 
[St]
-2.2 -3.3 92 -7  1028.4  0.5  729  296    -1.4       
18 02.01.14 140 (ЮВ) 6{11}  20000 м    10/10 240 м 
[St]
-2.7 -3.8 92 -7  1028.2  -0.3  729  297           
21 02.01.14 130 (ЮВ) 6{10}  20000 м    10/10 270 м 
[St]
-3.4 -4.6 91 -8  1028.4  729  298           
00 03.01.14 130 (ЮВ) 20000 м    4/4 300 м 
[St]
-4.2 -5.2 93 -8  1028.4  0.1  729  299           
03 03.01.14 130 (ЮВ) 20000 м    3/3 300 м 
[Sc]
-5.1 -6.1 93 -7  1028.8  0.2  729  300  -5.1      <0.5  мокрый или
старый снег
50-90% 
06 03.01.14 130 (ЮВ) 20000 м    3/0 верхняя 
[Ci fib]
-3.8 -4.9 92 -6  1029.2  0.7  729  298  -5.5         
09 03.01.14 130 (ЮВ) 20000 м    8/8 300 м 
[St]
-0.9 -2.8 87 -4  1028.2  -0.4  729  295           
12 03.01.14 130 (ЮВ) 20000 м    9/9 330 м 
[St]
-1.3 -3.5 85 -5  1028.5  0.2  729  296           
15 03.01.14 130 (ЮВ) 20000 м    10/10 330 м 
[St]
-2.9 -4.4 89 -7  1029.1  0.3  729  297    -0.4       
18 03.01.14 130 (ЮВ) 20000 м    10/10 270 м 
[St]
-3.1 -4.6 89 -7  1029  -0.2  729  298           
21 03.01.14 130 (ЮВ) 20000 м    10/10 240 м 
[St]
-3.6 -4.9 91 -7  1028.5  -0.6  729  298           
00 04.01.14 140 (ЮВ) 10 км    10/10 210 м 
[St]
-3.6 -4.9 91 -7  1028.7  0.2  729  298           
03 04.01.14 140 (ЮВ) 10 км    8/8 200 м 
[St]
-4.4 -5.4 93 -8  1029.2  0.3  729  299  -4.6      <0.5  мокрый или
старый снег
10-40% 
06 04.01.14 130 (ЮВ) 4000 м  дымка  3/3 300 м 
[St]
-4 -5.2 91 -8  1029.9  0.8  730  299  -5.1         
09 04.01.14 140 (ЮВ) 20000 м    5/5 300 м 
[St]
-0.6 -3.6 80 -4  1028.3  -0.9  729  295           
12 04.01.14 120 (ЮВ) 20000 м    6/0 средняя, верхняя 
[Ac trans|Ci fib]
+0.8 -3.5 73 -2  1027.8  -0.2  729  293           
15 04.01.14 130 (ЮВ) 20000 м    ясно 
-2.8 -3.9 92 -6  1029  0.4  729  297    +0.9       
18 04.01.14 150 (ЮВ) 20000 м    ясно 
-3.2 -4.7 89 -8  1028.6  -0.4  729  298           
21 04.01.14 120 (ЮВ) 20000 м    ясно 
-4.7 -5.9 91 -8  1029.1  0.1  729  299           
00 05.01.14 120 (ЮВ) 20000 м    ясно 
-5.1 -6.5 90 -6  1029.2  -0.1  729  300           
03 05.01.14 120 (ЮВ) 20000 м    ясно 
-5 -6.5 89 -7  1029  -0.2  729  300  -5.5      <0.5  мокрый или
старый снег
10-40% 
06 05.01.14 090 (В) 20000 м    1/0 средняя 
[Ac trans]
-3.1 -5.1 86 -3  1029.4  0.8  729  298  -5.8         
09 05.01.14 070 (В) 20000 м    3/0 верхняя 
[Ci fib]
+1.1 -3.8 70 +2  1027.8  -0.7  729  293           
12 05.01.14 060 (СВ) 20000 м    8/0 средняя, верхняя 
[Ac trans|Ci]
+1.4 -1.9 79 1027.5  -0.2  729  292           
15 05.01.14 040 (СВ) 20000 м    3/0 средняя 
[Ac trans]
-1.9 -2.8 94 -4  1029.3  730  296    +3.1       
18 05.01.14 110 (В) 0200 м  переохл. туман  ?/?  
-3.2 -3.8 95 -4  1029.8  0.2  730  298           
21 05.01.14 100 (В) 0100 м  переохл. туман  ?/?  
-4.3 -4.9 96 -6  1029.3  -0.7  729  299           
00 06.01.14 130 (ЮВ) 0100 м  переохл. туман  ?/?  
-4.4 -5.1 95 -6  1029.6  0.3  729  299           
03 06.01.14 150 (ЮВ) 0100 м  переохл. туман  ?/?  
-5.6 -6.5 93 -7  1029.3  -0.6  729  301  -5.6      <0.5  мокрый или
старый снег
10-40% 
06 06.01.14 170 (Ю) 0100 м  переохл. туман  ?/?  
-5.4 -6.2 94 -5  1029.7  0.5  729  300  -6         
09 06.01.14 150 (ЮВ) 10 км  {туман}  8/0 средняя 
[Ac trans]
-1.4 -2 96 -2  1027.3  -1.4  728  295           
12 06.01.14 140 (ЮВ) 20000 м  {туман}  9/0 средняя 
[Ac trans]
+2.6 +1.7 94 +3  1025.9  -0.5  728  290           
15 06.01.14 180 (Ю) 20000 м    9/0 средняя 
[Ac trans]
-0.7 -1.3 96 -2  1026.9  0.3  728  294    +2.9       
18 06.01.14 190 (Ю) 20000 м    6/0 средняя 
[Ac trans]
-0 -1.8 88 -1  1026  0.3  728  293           
21 06.01.14 тихо ()   20000 м    4/0 средняя 
[Ac trans]
+2.1 -5.2 58 +2  1024.6  -0.9  727  291           
00 07.01.14 180 (Ю) 20000 м    9/0 средняя 
[Ac trans]
+2.6 -4.7 59 +3  1023.7  -0.7  726  290           
03 07.01.14 190 (Ю) 20000 м    6/0 средняя 
[Ac trans]
-0 -5.2 68 -1  1023.2  -1  725  293  -1.7      <0.5  мокрый или
старый снег
10-40% 
06 07.01.14 210 (ЮЗ) 20000 м    8/0 средняя 
[Ac trans]
+2.6 -2.5 69 +1  1022.4  -0.2  725  290           
09 07.01.14 тихо ()   20000 м    8/0 средняя 
[Ac trans]
+7.8 -2.2 49 +8  1020.1  -1.2  724  284           
12 07.01.14 050 (СВ) 20000 м    10/0 средняя 
[Ac und]
+6.5 -3.5 49 +7  1019.5  -0.8  724  285           
15 07.01.14 180 (Ю) 10 км  слаб. ливневой дождь  10/6 300 м кучево-дожд., средняя 
[Cb cap|Ac und]
+1.8 +0.9 94 1022.1  1.6  725  290    +8.2     
18 07.01.14 220 (ЮЗ) 4000 м  слаб. ливневой снег  10/8 150 м кучево-дожд., средняя 
[Cb cap|Ac und]
+0.4 -0.3 95 -2  1023.6  1.1  726  292           
21 07.01.14 250 (З) 10 км  {ливн. осадки}  10/8 300 м кучево-дожд., средняя 
[Cb calv|Ac und]
+1.1 +0.3 94 -1  1024.6  1.1  727  292           
00 08.01.14 250 (З) 40000 м  дымка{ливн. осадки}  10/10 270 м 
[St]
+0.8 -0.1 94 -1  1026.6  1.8  728  292           
03 08.01.14 270 (З) 10 км    10/8 300 м кучево-дожд., средняя 
[Cb calv|Ac und]
+0.7 -1.6 85 1027.3  0.7  729  293  +0.4    <0.5  мокрый или
старый снег
10-40% 
06 08.01.14 тихо ()   20000 м    3/0 средняя 
[Ac trans]
+1.4 -1.5 81 +1  1028.4  1.2  729  293  -0.1         
09 08.01.14 150 (ЮВ) 20000 м    8/8 420 м 
[Sc]
+3.2 -0.5 77 +2  1027.5  -0.5  729  290           
12 08.01.14 150 (ЮВ) 20000 м    6/6 450 м 
[Sc]
+2.5 -0.5 81 +1  1027.7  -0.1  729  291           
15 08.01.14 140 (ЮВ) 20000 м    10/10 420 м 
[Sc]
+0.7 -0.6 91 1028.7  0.6  730  293    +4.4       
18 08.01.14 210 (ЮЗ) 20000 м    5/5 300 м 
[St]
-0.3 -1.6 91 -3  1028.1  -0.8  729  294           
21 08.01.14 270 (З) 3000 м  дымка  10/10 210 м 
[St]
-0.5 -1.3 94 -2  1027.1  -1  728  294           
00 09.01.14 190 (Ю) 0100 м  туман [диам. гололёда 1 мм]  ?/?  
-2.2 -2.7 96 -3  1026.5  -0.9  728  296           
03 09.01.14 180 (Ю) 20000 м  {туман}  9/9 300 м 
[Sc]
-1.1 -1.5 97 -1  1025.1  -1.1  727  294  -4.1         
06 09.01.14 190 (Ю) 20000 м  {туман} [диам. гололёда 1 мм]  9/9 700 м 
[Sc]
+1.8 +1.2 96 +3  1024.3  0.1  727  291           
09 09.01.14 260 (З) 20000 м    8/3 600 м средняя, верхняя 
[Sc|Ac trans|Ci sp]
+4.7 +0.4 74 +3  1021.9  -1.8  725  287           
12 09.01.14 260 (З) 20000 м    10/8 450 м средняя 
[Sc|Ac und]
+3.5 +0.1 78 +2  1021  -1.1  725  288           
15 09.01.14 230 (ЮЗ) 20000 м    9/9 570 м 
[Sc]
+3.1 +0 80 +2  1020.4  -0.6  724  288    +4.7       
18 09.01.14 240 (ЮЗ) 20000 м    10/5 300 м средняя 
[Sc|Ac und]
+2.7 +0.3 84 1019.8  -0.7  724  289           
21 09.01.14 260 (З) 5{12}  20000 м    8/6 300 м средняя 
[St|Ac trans]
+2.8 +0.9 87 1020.2  -0.7  724  288           
00 10.01.14 270 (З) 7-11{12}  10 км    10/10 150 м 
[St]
+2.9 +1.8 92 1020.5  0.3  724  288           
03 10.01.14 270 (З) 10 км    10/10 100 м 
[St]
+2.7 +1.7 93 1020.5  724  289  +2.1      <0.5  мокрый или
старый снег
10-40% 
06 10.01.14 270 (З) 10 км    10/10 210 м 
[St]
+2.7 +1.6 92 1021.8  1.2  725  289           
09 10.01.14 260 (З) 20000 м    10/8 480 м средняя 
[Sc|Ac und]
+4.6 +1.7 81 +3  1020.7  -0.6  725  287           
12 10.01.14 260 (З) 20000 м    10/6 500 м средняя 
[Sc|Ac und]
+5.3 +1.5 77 +4  1019  -1.5  723  286           
15 10.01.14 190 (Ю) 20000 м    9/4 600 м средняя 
[Sc|Ac trans]
+3.5 +0.9 83 +2  1018.3  -1  723  287    +5.6       
18 10.01.14 150 (ЮВ) 20000 м    3/0 средняя 
[Ac trans]
+2.3 -0.6 81 +1  1016.6  -1.8  721  288           
21 10.01.14 160 (Ю) 20000 м    4/0 средняя 
[Ac trans]
+1.5 -1 83 -1  1014.4  -2.3  720  288           
00 11.01.14 170 (Ю) 20000 м    6/0 верхняя 
[Cu Sc|Cs]
+0.6 -2.5 80   -2.1             
03 11.01.14 200 (Ю) 20000 м    8/0 средняя, верхняя 
[Ac trans|Ci]
+1.6 -2.6 74 +1  1010.2  -1.8  717  287  -1.7         
06 11.01.14 280 (З) 5{13}  20000 м    8/0 средняя 
[Ac trans]
+5.2 -3 55 +3  1012.3  2.6  719  284           
09 11.01.14 280 (З) 10-15  10 км  слаб. ливневой дождь  10/6 420 м кучево-дожд., средняя 
[Cb cap|Ac und]
+4.9 +3.3 89 +1  1013.6  1.3  719  284           
12 11.01.14 280 (З) 6-10  20000 м  {ливн. осадки}  8/5 500 м кучево-дожд., средняя 
[Cb calv|Ac trans]
+4 +1.4 83 +1  1015.1  1.2  720  286           
15 11.01.14 270 (З) 9-14  20000 м    3/1 600 м кучево-дожд., средняя 
[Cb calv|Ac trans]
+3 -0.5 78 -1  1017.3  1.9  722  288    +7.8     
18 11.01.14 260 (З) 9-13{14}  20000 м    8/0 средняя 
[Ac trans]
+2.6 -0.9 78 -1  1018.8  1.3  723  289           
21 11.01.14 260 (З) 9-13{16}  20000 м    8/0 средняя 
[Ac trans]
+3 -1.2 74 -1  1018.9  0.2  723  288           
00 12.01.14 270 (З) 10-15{17}  20000 м    3/0 средняя 
[Ac trans]
+1.8 -2 76 -3  1019.6  0.4  723  290           
03 12.01.14 260 (З) 20000 м    ясно средняя 
[Ac trans]
+1.1 -2.3 78 -3  1020.2  0.5  724  291  +1.1         
06 12.01.14 260 (З) 7-11{12}  20000 м    6/3 600 м кучево-дожд., средняя 
[Cb calv|Ac trans]
+1.7 -2.8 72 -2  1021.3  1.2  724  290  +1         
09 12.01.14 280 (З) 5{11}  20000 м    8/3 600 м кучево-дожд., средняя 
[Cb calv|Ac trans]
+5 -2.8 57 +3  1019.3  -1.3  723  287           
12 12.01.14 270 (З) 6{11}  20000 м    8/3 600 м кучево-дожд., средняя 
[Cb calv|Ac trans]
+5 -0.4 68 +2  1018.1  -1.1  723  286           
15 12.01.14 170 (Ю) 20000 м    9/0 средняя, верхняя 
[Ac trans|Ci fib]
+2.2 -1 79 1016.9  -1.6  721  288    +6.2       
18 12.01.14 170 (Ю) 20000 м    3/0 средняя, верхняя 
[Ac trans|Ci fib]
+0.9 -3.4 73 -1  1015.7  -1.4  720  290           
21 12.01.14 200 (Ю) 20000 м    8/0 средняя 
[Ac trans]
+2.4 -3.9 63 1013.1  -2.2  719  287           
00 13.01.14 200 (Ю) 20000 м    10/0 средняя 
[Ac und]
+2.9 -3.8 61 +4  1011.6  -1.3  718  287           
03 13.01.14 270 (З) 20000 м  слаб. ливневой дождь  10/6 300 м кучево-дожд., средняя 
[Cb cap|Ac und]
+1.9 -0.4 85 -1  1011.8  718  287  +0.3    0.0     
06 13.01.14 250 (З) 4{10}  0700 м  ливневой снег  ?/?  
-0.2 -0.9 95 -3  1013.6  1.4  719  290  -0.2         
09 13.01.14 220 (ЮЗ) 20000 м  в посл. час ливневой снег  10/6 300 м кучево-дожд., средняя 
[Cb calv|Ac und]
+0.2 -1.2 90 -2  1012.5  -1  718  289           
12 13.01.14 260 (З) 10-13{16}  20000 м  {ливн. осадки}  8/4 600 м кучево-дожд., средняя 
[Cb calv|Ac trans]
+0.7 -2.1 82 -4  1011.1  -1.2  717  288           
15 13.01.14 270 (З) 11-15  20000 м    6/4 300 м кучево-дожд., средняя 
[Cb calv|Ac trans]
-0.3 -3.5 79 -6  1012.4  718  290    +1.8     
18 13.01.14 270 (З) 10-14{16}  20000 м    8/3 1000 м средняя 
[Sc diur, vesp|Ac trans]
-0.8 -4.5 76 -6  1013.9  1.3  719  291           
21 13.01.14 260 (З) 6-10{14}  20000 м    5/0 средняя 
[Ac trans]
-1.3 -4.7 78 -5  1013.9  719  291           
00 14.01.14 260 (З) 6{11}  20000 м    10/0 средняя 
[As trans]
-0.5 -4.1 77 -4  1014  0.2  719  291           
03 14.01.14 250 (З) 10 км  слаб. снег  8/8 200 м 
[St]
-1.8 -3.1 91 -6  1014.8  0.5  719  292  -1.8    0.0     
06 14.01.14 270 (З) 10-13  10 км  позёмок{ливн. осадки, снег}  9/5 300 м кучево-дожд., средняя 
[Cb calv|Ac trans]
-2.2 -4.2 86 -8  1017.9  2.8  721  293  -2.2         
09 14.01.14 270 (З) 9-13{15}  10 км  позёмок{ливн. осадки}  6/4 300 м кучево-дожд., средняя 
[Cb calv|Ac trans]
-2.3 -4.9 82 -7  1018.9  0.9  722  294           
12 14.01.14 280 (З) 7-11  20000 м  позёмок{ливн. осадки}  8/6 570 м кучево-дожд., средняя 
[Cb calv|Ac trans]
-2 -5.6 76 -6  1020.9  1.9  724  294           
15 14.01.14 280 (З) 20000 м  позёмок{ливн. осадки}  9/8 300 м кучево-дожд., средняя 
[Cb calv|Ac trans]
-2.1 -4.4 84 -6  1022.8  1.8  725  295    -1.4  0.3     
18 14.01.14 290 (З) 5{12}  20000 м    5/5 870 м 
[Sc]
-2.6 -5 83 -6  1024.4  1.4  726  296           
21 14.01.14 270 (З) 20000 м    9/8 360 м средняя 
[St|Ac trans]
-2.7 -4.9 85 -7  1025.2  0.7  727  296           
00 15.01.14 280 (З) 20000 м    9/6 960 м средняя 
[Sc|Ac trans]
-3.6 -6.7 79 -7  1027  1.5  728  298           
03 15.01.14 270 (З) 20000 м    10/6 600 м средняя 
[Sc|Ac und]
-4.2 -6.8 82 -7  1027.8  0.6  728  299  -4.2      неравномерный
сухой снег
100% 
06 15.01.14 250 (З) 20000 м    3/0 верхняя 
[Ci fib]
-5.8 -8.3 82 -8  1029.3  0.6  729  301  -8         
09 15.01.14 240 (ЮЗ) 20000 м    1/0 верхняя 
[Ci fib]
-0.2 -6.3 63 -1  1027.7  -0.3  729  294           
12 15.01.14 020 (С) 20000 м    3/0 верхняя 
[Ci fib]
+0.9 -5.4 63 1027.6  -0.1  729  293           
15 15.01.14 180 (Ю) 20000 м    3/0 верхняя 
[Ci fib]
-4 -6.6 82 -6  1028.6  0.1  729  299    +1.3       
18 15.01.14 180 (Ю) 20000 м    6/0 верхняя 
[Ci fib]
-3.7 -6.6 80 -7  1028.1  -0.5  728  298           
21 15.01.14 160 (Ю) 20000 м    5/0 верхняя 
[Ci fib]
-2.7 -6.4 76 -6  1026.5  -1.3  727  297           
00 16.01.14 180 (Ю) 20000 м    4/0 верхняя 
[Ci fib]
-2.7 -7.8 68 -6  1025.3  -1.1  727  296           
03 16.01.14 170 (Ю) 20000 м    8/0 верхняя 
[Ci fib]
+0.1 -9.1 50 -2  1022.6  -2  725  293  -4.7      сухой снег
50-90% 
06 16.01.14 150 (ЮВ) 20000 м    8/0 верхняя 
[Ci fib]
+1.9 -8.7 45 -1  1021.8  -0.4  725  291           
09 16.01.14 160 (Ю) 20000 м    8/0 верхняя 
[Ci fib]
+6.3 -4.4 46 +5  1019.2  -1.6  724  285           
12 16.01.14 150 (ЮВ) 20000 м    8/0 средняя 
[Ac trans]
+7.2 -7.4 35 +6  1017.5  -1.5  722  284           
15 16.01.14 140 (ЮВ) 20000 м    8/0 средняя 
[Ac trans]
+6.9 -8.8 32 +6  1016  -1.5  721  284    +7.8       
18 16.01.14 260 (З) 20000 м    6/0 средняя 
[Ac trans]
+7.4 -8.2 32 +6  1015.3  -0.5  721  284           
21 16.01.14 280 (З) 20000 м    8/0 средняя 
[Ac trans]
+8.5 -6.5 34 +8  1014.1  -0.9  720  282           
00 17.01.14 270 (З) 8-10{12}  20000 м    8/0 средняя 
[Ac trans]
+7.3 -6 38 +5  1014.6  0.2  720  283           
03 17.01.14 280 (З) 7{13}  20000 м    10/4 1000 м кучево-дожд., средняя 
[Cb calv|Ac und]
+5.8 -1.2 61 +3  1015.4  0.5  721  284  +5      <0.5  мокрый или
старый снег
10-40% 
06 17.01.14 270 (З) 6{10}  10 км  слаб. ливневой дождь  10/6 570 м кучево-дожд., средняя 
[Cb cap|Ac und]
+4.5 +3.6 94 +2  1017.6  1.9  722  286  +4         
09 17.01.14 270 (З) 10 км  слаб. ливневой дождь  10/6 570 м кучево-дожд., средняя 
[Cb cap|Ac und]
+4.5 +3.6 94 +2  1017.6  1.9  722  286  +4         
12 17.01.14 290 (З) 4{10}  4000 м  дымка{ливн. осадки, морось}  10/10 120 м 
[St]
+4.4 +3.8 96 +3  1018.2  0.4  723  286           
15 17.01.14 280 (З) 10 км    10/8 270 м средняя 
[St|Ac und]
+3.3 +2 91 1019.8  1.2  724  288    +6     
18 17.01.14 270 (З) 4000 м  слаб. ливневой дождь  10/8 240 м кучево-дожд., средняя 
[Cb cap|Ac und]
+2.1 +1 93 -1  1021.2  724  289           
21 17.01.14 280 (З) 4000 м  слаб. ливневой дождь  10/8 180 м кучево-дожд., средняя 
[Cb cap|Ac und]
+1.5 +0.6 94 -1  1022.1  0.8  725  290           
00 18.01.14 270 (З) 0200 м  туман{ливн. осадки}  ?/?  
+0.1 -0.4 96 -1  1022.3  0.1  725  292           
03 18.01.14 070 (В) 0700 м  туман  ?/?  
+0.1 -0.4 96 +1  1022.2  0.1  725  292  -0    0.7     
06 18.01.14 160 (Ю) 1500 м  дымка{туман}  10/8 540 м средняя 
[Sc|Ac und]
+0.6 +0.2 97 1021.5  -0.6  724  291  -0.3         
09 18.01.14 140 (ЮВ) 3500 м  слаб. ливневой дождь  10/6 600 м кучево-дожд., средняя 
[Cb cap|Ac und]
+4.1 +3.6 97 +3  1018.7  -1.9  723  286           
12 18.01.14 150 (ЮВ) 20000 м  {ливн. осадки}  10/5 600 м кучево-дожд., средняя 
[Cb calv|Ac und]
+6.1 +3.1 81 +4  1016.3  -1.9  722  284           
15 18.01.14 170 (Ю) 20000 м    10/5 600 м кучево-дожд., средняя 
[Cb calv|Ac und]
+5 +2.8 86 +3  1015.1  -1.4  721  285    +6.5     
18 18.01.14 200 (Ю) 20000 м    10/8 800 м кучево-дожд., средняя 
[Cb calv|Ac und]
+5.5 +1.8 77 +4  1014.1  -0.8  720  284           
21 18.01.14 230 (ЮЗ) 20000 м    10/3 600 м кучево-дожд., средняя 
[Cb calv|Ac und]
+5.5 +2.2 79 +5  1013.8  -0.2  720  284           
00 19.01.14 280 (З) 10-16{16}  20000 м    6/0 средняя 
[Ac trans]
+6.5 +3.5 81 +3  1013.8  0.2  720  283           
03 19.01.14 280 (З) 12  20000 м    10/8 300 м средняя 
[St|Ac und]
+6.8 +5.1 89 +3  1015  1.1  721  282  +4.6         
06 19.01.14 290 (З) 4000 м  дымка  10/10 120 м 
[St]
+3.4 +2.5 94 1017.5  1.8  722  287  +3.4         
09 19.01.14 290 (З) 4000 м  дымка  10/10 120 м 
[St]
+3.4 +2.5 94 1017.5  1.8  722  287  +3.4         
12 19.01.14 340 (С) 4{11}  0800 м  туман  ?/?  
-0.5 -1.3 94 -3  1021.5  724  292           
15 19.01.14 010 (С) 0200 м  туман{морось} [диам. гололёда 3 мм]  ?/?  
-2.4 -2.9 96 -4  1024.2  2.2  726  295    +6.8  0.4     
18 19.01.14 050 (СВ) 3000 м  дымка{морось, туман} [диам. гололёда 4 мм]  10/10 150 м 
[St]
-3.5 -4.2 95 -5  1025.1  0.6  726  297           
21 19.01.14 090 (В) 0300 м  переохл. туман [диам. сложн. отлож. 4 мм]  ?/?  
-3.8 -4.5 95 -6  1024.7  -0.4  726  297           
00 20.01.14 080 (В) 1300 м  дымка{туман} [диам. сложн. отлож. 5 мм]  10/10 60 м 
[St]
-4 -4.7 95 -6  1024.7  -0.1  726  297           
03 20.01.14 080 (В) 2000 м  снег  10/10 100 м 
[]
-4 -4.7 95 -6  1024.6  0.1  726  297  -4    0.6     
06 20.01.14 070 (В) 1200 м  сильн. снег  10/10 120 м 
[Ns]
-4.6 -5.4 94 -7  1024.6  0.1  726  298  -4.7         
09 20.01.14 080 (В) 1500 м  сильн. снег [диам. сложн. отлож. 5 мм]  10/10 120 м 
[Ns]
-3.6 -4.3 95 -6  1023.7  -0.6  725  297           
12 20.01.14 090 (В) 1100 м  сильн. снег [диам. сложн. отлож. 5 мм]  10/10 100 м 
[]
-4.2 -5 94 -8  1023  -0.8  725  297           
15 20.01.14 090 (В) 0700 м  сильн. снег{туман} [диам. сложн. отлож. 5 мм]  ?/?  
-6 -6.9 93 -11  1024.1  0.7  725  299    -3.5     
18 20.01.14 100 (В) 1200 м  сильн. снег  10/10 120 м 
[Ns]
-6.7 -7.7 93 -12  1024.4  0.1  725  300           
21 20.01.14 110 (В) 7{10}  1200 м  сильн. снег  10/10 120 м 
[Ns]
-7.3 -8.3 92 -13  1024.6  0.1  725  301           
00 21.01.14 100 (В) 8{10}  1000 м  сильн. снег  10/10 100 м 
[Ns]
-7.7 -8.8 92 -14  1024  -0.7  725  301           
03 21.01.14 110 (В) 1100 м  сильн. снег  10/10 100 м 
[Ns]
-8 -9.1 92 -14  1024.3  0.3  725  302  -8       
06 21.01.14 120 (ЮВ) 7{10}  0700 м  сильн. снег [диам. сложн. отлож. 2 мм]  ?/?  
-7.7 -8.8 92 -13  1023.9  -0.3  725  301  -8.1         
09 21.01.14 130 (ЮВ) 9-12{12}  0800 м  сильн. снег [диам. сложн. отлож. 2 мм]  ?/?  
-6.8 -7.8 93 -13  1023.1  -0.6  724  300           
12 21.01.14 130 (ЮВ) 8-10{12}  0700 м  сильн. снег [диам. сложн. отлож. 2 мм]  ?/?  
-6.2 -7.1 93 -12  1021.9  -0.6  724  299           
15 21.01.14 130 (ЮВ) 10  10 км  слаб. ливневой дождь{снег}  10/8 200 м кучево-дожд., средняя 
[Cb cap|Ac und]
-5.5 -6.4 93 -12  1021.7  -0.1  724  298    -5.4     
18 21.01.14 140 (ЮВ) 7{14}  10 км  слаб. крупа{ливн. осадки}  10/8 180 м кучево-дожд., средняя 
[Cb cap|Ac und]
-4.9 -5.7 94 -10  1020.4  -1.1  723  297           
21 21.01.14 150 (ЮВ) 20000 м  в посл. час переохл. осадки (гололёд){ливн. осадки, дождь} [диам. гололёда 6 мм]  10/8 180 м средняя 
[Sc diur, vesp|Ac und]
-3.4 -4.1 95 -8  1018.6  -1.4  722  295           
00 22.01.14 150 (ЮВ) 20000 м  {ливн. осадки, снег}  10/8 840 м средняя 
[Sc diur, vesp|Ac und]
-3.4 -4.1 95 -6  1017.3  -1.2  721  294           
03 22.01.14 120 (ЮВ) 20000 м  в посл. час переохл. осадки (гололёд){дождь}  8/3 1000 м средняя 
[Sc|Ac trans]
-3.5 -4.1 96 -5  1015.6  -1.6  720  294  -5.6       
06 22.01.14 130 (ЮВ) 20000 м  {дождь} [диам. гололёда 7 мм]  10/0 средняя 
[Ac und]
-4 -4.7 95 -6  1013.6  -2  718  294           
09 22.01.14 160 (Ю) 20000 м  [диам. гололёда 6 мм]  10/0 средняя 
[Ac und]
-0.9 -1.5 96 -2  1010.8  -2  717  290           
12 22.01.14 150 (ЮВ) 20000 м  [диам. гололёда 6 мм]  10/3 1000 м средняя 
[Sc|Ac und]
+0.2 -0.7 94 -2  1007.8  -2.6  715  288           
15 22.01.14 130 (ЮВ) 20000 м    10/4 1000 м средняя 
[Sc|Ac und]
+0.8 -1.3 86 -3  1008.2  0.5  715  287    +1.2       
18 22.01.14 тихо ()   10 км  слаб. дождь  10/8 1080 м средняя 
[Sc|Ac und]
+0.4 -0.8 92 1009.8  1.5  716  288           
21 22.01.14 100 (В) 10 км  {дождь}  5/5 1000 м 
[Sc]
-0.2 -0.8 96 -3  1008.9  -1  715  288           
00 23.01.14 300 (СЗ) 20000 м  {дождь}  10/5 1000 м средняя 
[Sc|Ac und]
+4.1 +1.5 83 +4  1009  716  284           
03 23.01.14 270 (З) 20000 м  слаб. дождь  10/8 600 м средняя 
[Sc|Ac und]
+3.3 +1.3 87 1009.9  0.6  717  285  -0.5       
06 23.01.14 260 (З) 4{12}  2000 м  дымка{дождь, туман}  10/10 120 м 
[St]
+1.1 +0.5 96 -1  1012  1.5  718  288           
09 23.01.14 280 (З) 8-12  1200 м  дымка  10/10 100 м 
[St]
+0.8 +0.1 95 -3  1012.3  0.3  718  288           
12 23.01.14 270 (З) 9-13{14}  0300 м  туман  ?/?  
-0.3 -0.8 96 -5  1013.1  0.5  718  290           
15 23.01.14 280 (З) 3000 м  дымка{туман}  10/10 100 м 
[St]
-0.9 -1.4 96 -5  1015  1.7  720  291    +3.2       
18 23.01.14 270 (З) 8-11  4000 м  слаб. ливневой снег  10/8 270 м кучево-дожд., средняя 
[Cb cap|Ac und]
-0.6 -1.8 91 -5  1015.5  0.5  720  291           
21 23.01.14 250 (З) 5{11}  4000 м  слаб. ливневой снег  10/8 210 м кучево-дожд., средняя 
[Cb cap|Ac und]
-1 -2 93 -4  1015.7  0.1  720  291           
00 24.01.14 240 (ЮЗ) 4000 м  слаб. ливневой снег  10/8 270 м кучево-дожд., средняя 
[Cb cap|Ac und]
-1.6 -2.6 93 -4  1015.5  -0.3  720  292           
03 24.01.14 260 (З) 10 км  слаб. ливневой снег  10/8 200 м кучево-дожд., средняя 
[Cb cap|Ac und]
-3.3 -4.9 89 -7  1016.6  0.7  720  294  -3.3    0.3     
06 24.01.14 260 (З) 7{12}  0700 м  ливневой снег  ?/?  
-5 -6.5 89 -10  1017.9  0.7  721  297  -5         
09 24.01.14 270 (З) 8-11  2000 м  слаб. ливневой снег  10/8 240 м кучево-дожд., средняя 
[Cb cap|Ac und]
-4.5 -6.3 87 -10  1018.4  0.6  722  296           
12 24.01.14 260 (З) 7-10  10 км  позёмок{ливн. осадки}  10/8 270 м кучево-дожд., средняя 
[Cb cap|Ac und]
-4.7 -6.6 87 -10  1018.8  0.3  722  297           
15 24.01.14 260 (З) 10 км  в посл. час ливневой снег  10/8 300 м кучево-дожд., средняя 
[Cb calv|Ac und]
-6.6 -8.8 84 -11  1020.8  1.4  723  299    -3.3       
18 24.01.14 280 (З) 8-11  20000 м  позёмок{ливн. осадки}  8/6 270 м кучево-дожд., средняя 
[Cb calv|Ac trans]
-8.4 -10.4 85 -14  1021.8  0.6  723  302           
21 24.01.14 290 (З) 4{11}  10 км  слаб. ливневой снег  10/8 180 м кучево-дожд., средняя 
[Cb cap|Ac und]
-11.1 -12.8 87 -15  1023.3  0.8  724  305           
00 25.01.14 290 (З) 20000 м  {ливн. осадки}  ясно 
-13.7 -15.5 86 -20  1024.2  0.3  724  308           
03 25.01.14 290 (З) 20000 м    1/0 верхняя 
[Ci fib]
-15 -16.9 85 -17  1025.3  0.8  725  310  -15.7    0.0  18  неравномерный
сухой снег
100% 
06 25.01.14 230 (ЮЗ) 20000 м    1/0 средняя 
[Ac lent]
-14.7 -16.6 85 -17  1026.2  0.9  725  310  -15.8         
09 25.01.14 350 (С) 20000 м    1/0 верхняя 
[Ci fib]
-10 -15.3 65 -12  1024.1  -1  725  304           
12 25.01.14 020 (С) 20000 м    6/0 верхняя 
[Ci]
-9.6 -14.6 67 -11  1022.9  -1  724  303           
15 25.01.14 050 (СВ) 20000 м    3/0 верхняя 
[Ci sp]
-14.1 -16.2 84 -16  1024.5  0.5  724  309    -9.2       
18 25.01.14 080 (В) 20000 м    3/0 средняя 
[Ac trans]
-16.6 -18.5 86 -22  1025.5  0.4  724  312           
21 25.01.14 100 (В) 20000 м    6/0 средняя 
[Ac trans]
-16.5 -18.5 85 -20  1024.7  -0.6  724  312           
00 26.01.14 110 (В) 10 км    10/10 150 м 
[St]
-14.4 -16.4 85 -19  1023.8  -0.4  724  309           
03 26.01.14 100 (В) 10 км    10/10 100 м 
[St]
-13.3 -14.8 88 -19  1022.7  -0.8  723  308  -17.1      18  неравномерный
сухой снег
100% 
06 26.01.14 100 (В) 4000 м  дымка  10/6 270 м средняя 
[St|Ac und]
-11.9 -13.5 88 -17  1023  0.6  724  306           
09 26.01.14 100 (В) 10 км    10/4 300 м средняя 
[Sc|Ac und]
-9.8 -11.3 89 -15  1022.2  -0.3  723  303           
12 26.01.14 100 (В) 10 км    9/3 300 м средняя 
[Sc|Ac trans]
-9.2 -11.4 84 -15  1021.1  -1  723  302           
15 26.01.14 100 (В) 10 км    10/5 240 м средняя 
[St|Ac und]
-11 -12.5 89 -17  1021.9  0.4  723  305    -9       
18 26.01.14 110 (В) 7{10}  10 км    9/5 300 м средняя 
[St|Ac trans]
-11 -12.5 89 -17  1021.2  -0.7  722  304           
21 26.01.14 100 (В) 8{10}  10 км    10/6 240 м средняя 
[St|Ac und]
-10.7 -12.1 89 -17  1019.9  -1.2  722  304           
00 27.01.14 100 (В) 7{10}  10 км    10/6 300 м средняя 
[Sc|Ac und]
-11.2 -12.7 89 -17  1018.6  -1.3  721  304           
03 27.01.14 110 (В) 20000 м    10/6 300 м средняя 
[Sc|Ac und]
-8.7 -9.8 92 -15  1017.5  -0.5  720  301  -11.4      18  неравномерный
сухой снег
100% 
06 27.01.14 100 (В) 10-13  10 км  позёмок  10/10 270 м 
[St]
-7.4 -8.4 93 -14  1017.1  -0.1  720  299           
09 27.01.14 100 (В) 10  0800 м  крупа{ливн. осадки, снег}  10/8 180 м кучево-дожд., средняя 
[Cb calv|Ac und]
-7.5 -8.5 93 -14  1016.2  -0.1  719  299           
12 27.01.14 110 (В) 9-11  10 км  позёмок{ливн. осадки, снег}  10/8 240 м кучево-дожд., средняя 
[Cb calv|Ac und]
-6 -7.1 92 -12  1015.5  -0.4  719  297           
15 27.01.14 110 (В) 10  10 км  позёмок  10/8 100 м кучево-дожд., средняя 
[Cb calv|Ac und]
-6.1 -7 93 -12  1015.9  0.4  719  297    -5.8     
18 27.01.14 110 (В) 8{12}  10 км  позёмок  10/8 180 м кучево-дожд., средняя 
[Cb calv|Ac und]
-6.7 -7.7 93 -12  1015.6  -0.4  719  298           
21 27.01.14 120 (ЮВ) 10 км  позёмок  10/8 120 м кучево-дожд., средняя 
[Cb calv|Ac und]
-6.7 -7.7 93 -11  1015.5  -0.1  719  298           
00 28.01.14 130 (ЮВ) 8-10  10 км  позёмок  10/8 150 м кучево-дожд., средняя 
[Cb calv|Ac und]
-6.8 -7.8 93 -13  1014.2  -1.3  718  297           
03 28.01.14 120 (ЮВ) 10 км    9/3 300 м средняя 
[St|Ac trans]
-6.5 -7.4 93 -12  1013.3  -0.8  718  297  -7.1         
06 28.01.14 100 (В) 6{10}  10 км    10/4 270 м средняя 
[St|Ac und]
-6.7 -7.7 93 -11  1014  0.6  718  297           
09 28.01.14 100 (В) 8-10{10}  10 км    10/4 120 м средняя 
[St|As trans]
-5.6 -6.5 93 -11  1013.5  -0.3  718  296           
12 28.01.14 080 (В) 9-11{11}  10 км    10/6 150 м средняя 
[St|As trans]
-6.2 -7.1 93 -12  1013.1  -0.5  717  296           
15 28.01.14 090 (В) 4000 м  дымка  10/6 100 м средняя 
[St|As op]
-7.5 -8.6 92 -14  1014.6  1.1  718  298    -5.1       
18 28.01.14 090 (В) 9-11{12}  10 км    10/6 100 м средняя 
[St|As trans]
-8.9 -10 92 -15  1016.3  1.4  719  300           
21 28.01.14 090 (В) 9-10{11}  10 км    10/10 120 м 
[St]
-9.8 -11.1 90 -17  1018  1.3  720  302           
00 29.01.14 090 (В) 8-11{11}  10 км    10/10 150 м 
[St]
-10.4 -11.7 90 -17  1018.8  0.6  721  303           
03 29.01.14 090 (В) 20000 м    10/8 300 м средняя 
[St|As trans]
-12 -13.5 89 -19  1019.6  0.4  721  305  -12      18  неравномерный
сухой снег
100% 
06 29.01.14 090 (В) 10  0700 м  сильн. снег  10/10 240 м 
[Ns]
-12.8 -14.4 88 -21  1021.8  1.9  722  307  -12.8         
09 29.01.14 090 (В) 11-13  0300 м  сильн. снег  10/10 150 м 
[Ns]
-14.4 -16.1 87 -23  1023  0.9  723  309           
12 29.01.14 090 (В) 11-13  0800 м  сильн. снег  10/10 150 м 
[Ns]
-14.9 -16.9 84 -24  1023.6  0.4  723  310           
15 29.01.14 100 (В) 11  0400 м  сильн. снег  10/10 100 м 
[Ns]
-15.5 -17.5 85 -24  1025.2  1.4  724  311    -12     
18 29.01.14 100 (В) 10-12  0300 м  сильн. снег  10/10 100 м 
[Ns]
-15.8 -17.9 84 -24  1026.9  1.5  726  312           
21 29.01.14 100 (В) 10-12{15}  0300 м  сильн. снег  10/10 100 м 
[Ns]
-16.8 -18.9 84 -26  1027.6  0.4  726  313           
00 30.01.14 090 (В) 11-13{17}  0400 м  сильн. снег  10/10 100 м 
[Ns]
-17.4 -19.6 83 -27  1028.2  0.4  726  314           
03 30.01.14 090 (В) 12-14{15}  0200 м  сильн. снег  10/10 60 м 
[Ns]
-18.6 -21 82 -29  1029.1  0.6  727  316  -18.6    35  очень
неравномерный
сухой снег
(сугробы, заносы) 
06 30.01.14 100 (В) 11-14{16}  0300 м  сильная метель{снег}  ?/?  
-19.7 -22.1 81 -30  1031.7  2.2  728  318  -19.8         
09 30.01.14 090 (В) 11-14{16}  0600 м  сильная метель  ?/?  
-20 -22.5 81 -30  1033.7  1.8  730  319           
12 30.01.14 090 (В) 11-13{15}  0600 м  сильная метель  ?/?  
-20.4 -23 79 -31  1035.5  1.6  731  320           
15 30.01.14 090 (В) 11  0700 м  ливневой снег  10/8 100 м кучево-дожд., средняя 
[Cb cap|Ac und]
-20.4 -23 79 -31  1039.1  3.4  733  321    -18.6     
18 30.01.14 100 (В) 11-13{14}  0700 м  сильная метель{ливн. осадки}  10/4 200 м средняя 
[St|As op]
-19.4 -21.8 81 -29  1040.5  1.6  735  320           
00 31.01.14 090 (В) 10-12{14}  0600 м  сильная метель  ?/?  
-19.4 -21.9 80 -29  1042.8  1.3  736  321           
03 31.01.14 090 (В) 11  0800 м  сильная метель  ?/?  
-19.4 -21.9 80 -29  1043.3  0.5  737  321  -20.4    0.9  35  очень
неравномерный
сухой снег
(сугробы, заносы) 
06 31.01.14 090 (В) 11-13  0600 м  сильная метель  10/4 200 м средняя 
[St|Ac und]
-20.3 -22.8 80 -30  1045.2  1.6  738  323  -20.7         
09 31.01.14 090 (В) 10-12{13}  0700 м  сильная метель  9/4 300 м средняя 
[St|Ac trans]
-19.5 -22 80 -29  1046.3  1.2  739  322           
12 31.01.14 090 (В) 9-11{13}  1200 м  метель  4/0 средняя 
[Ac trans]
-19.6 -22.1 80 -29  1046.5  0.2  739  322           
15 31.01.14 090 (В) 0600 м  сильная метель  3/0 средняя 
[Ac trans]
-22.9 -25.8 77 -32  1048.8  1.5  740  327    -19.1       
18 31.01.14 100 (В) 9-10{11}  0600 м  сильная метель  4/0 средняя 
[Ac und]
-23.6 -26.5 77 -34  1049.4  0.4  740  328           
21 31.01.14 110 (В) 8{12}  2500 м  метель  4/0 средняя 
[Ac trans]
-22.8 -25.6 78 -32  1048.9  -0.3  740  327           
00 01.02.14 090 (В) 9-11{11}  1200 м  метель  4/0 средняя 
[Ac trans]
-22.3 -25 79 -32  1048.3  -0.4  740  326           
03 01.02.14 090 (В) 10  0900 м  сильная метель  8/3 300 м средняя 
[St|Ac trans]
-22 -24.7 79 -32  1047.9  -0.3  739  326  -23.9         
06 01.02.14 100 (В) 8{11}  0400 м  сильная метель  ясно 
-20.7 -23.3 80 -29  1048.1  0.6  740  324           
Время (UTC), дата Ветер
(°,м/с) 
Видим.   Явления Облачность Т
(°С)
Тd
(°С)
f(%) Тe
(°С)
Pmin
(гПа)
dP
(гПа)
Po
(мм)
O2
(г/м3)
Тmin Tmax R s Состояние
почвы